This is the latest recevied weather packets stored in our database for station/object DG8SF-13. If no packets are shown the sender has not sent any weather packets the latest 10 day(s).
| Time | Temp. | Humidity | Pressure | Rain* | Wind** | Luminosity | Snow |
|---|---|---|---|---|---|---|---|
| 1777916768 | 20.56° C | 46% | 1010.5 hPa | 0 mm | - | - | - |
| 1777916455 | 20.56° C | 46% | 1010.3 hPa | 0 mm | - | - | - |
| 1777916143 | 21.11° C | 46% | 1010.4 hPa | 0 mm | - | - | - |
| 1777915830 | 21.67° C | 43% | 1010.3 hPa | 0 mm | - | - | - |
| 1777915517 | 21.67° C | 43% | 1010.3 hPa | 0 mm | - | - | - |
| 1777915208 | 21.67° C | 42% | 1010.2 hPa | 0 mm | - | - | - |
| 1777914894 | 21.67° C | 42% | 1010.3 hPa | 0 mm | - | - | - |
| 1777914586 | 22.22° C | 44% | 1010.4 hPa | 0 mm | - | - | - |
| 1777914268 | 22.22° C | 44% | 1010.4 hPa | 0 mm | - | - | - |
| 1777913960 | 21.67° C | 43% | 1010.4 hPa | 0 mm | - | - | - |
| 1777913647 | 22.22° C | 41% | 1010.4 hPa | 0 mm | - | - | - |
| 1777913333 | 21.67° C | 42% | 1010.4 hPa | 0 mm | - | - | - |
| 1777913021 | 22.22° C | 42% | 1010.4 hPa | 0 mm | - | - | - |
| 1777912711 | 22.22° C | 42% | 1010.4 hPa | 0 mm | - | - | - |
| 1777912399 | 22.22° C | 39% | 1010.4 hPa | 0 mm | - | - | - |
| 1777912085 | 22.78° C | 42% | 1010.4 hPa | 0 mm | - | - | - |
| 1777911775 | 23.33° C | 37% | 1010.4 hPa | 0 mm | - | - | - |
| 1777911461 | 23.33° C | 38% | 1010.5 hPa | 0 mm | - | - | - |
| 1777911149 | 23.33° C | 37% | 1010.4 hPa | 0 mm | - | - | - |
| 1777910841 | 23.33° C | 36% | 1010.5 hPa | 0 mm | - | - | - |
| 1777910524 | 23.89° C | 36% | 1010.5 hPa | 0 mm | - | - | - |
| 1777910214 | 23.89° C | 37% | 1010.4 hPa | 0 mm | - | - | - |
| 1777909902 | 23.89° C | 36% | 1010.4 hPa | 0 mm | - | - | - |
| 1777909591 | 23.33° C | 37% | 1010.4 hPa | 0 mm | - | - | - |
| 1777909277 | 23.89° C | 37% | 1010.3 hPa | 0 mm | - | - | - |
* Rain latest hour (hover to see other rain measurements)
** Current wind speed in m/s (hover to see current wind gust speed)